Weather History for Adana, Turkey

Change the Weather History Date:

Monday, October 15, 2012

  Actual Average Record
Temperature  
Mean Temperature 74 °F -  
Max Temperature 89 °F 76 °F 96 °F (1997)
Min Temperature 60 °F 54 °F 53 °F (1996)
Cooling Degree Days 10    
Growing Degree Days 24 (Base 50)    
Moisture  
Dew Point 55 °F    
Average Humidity 56    
Maximum Humidity 88    
Minimum Humidity 22    
Precipitation  
Precipitation 0.00 in 0.08 in - ()
Sea Level Pressure  
Sea Level Pressure 30.00 in    
Wind  
Wind Speed 3 mph ()    
Max Wind Speed 7 mph    
Max Gust Speed -    
Averages and records for this station are not official NWS values.
T = Trace of Precipitation, MM = Missing Value Source: Averaged Metar Reports

Daily Weather History Graph

Daily Weather History Graph

Search for Another Location

Airport:

Trip Planner

Search our weather history database for the weather conditions in past years. The results will help you decide how hot, cold, wet, or windy it might be!

Date:

Astronomy

Oct. 15, 2012 Rise Set
Actual Time 6:46 AM EEST 6:01 PM EEST
Civil Twilight 6:20 AM EEST 6:28 PM EEST
Nautical Twilight 5:50 AM EEST 6:58 PM EEST
Astronomical Twilight 5:20 AM EEST 7:28 PM EEST
Moon 6:31 AM EEST (10/15) 5:48 PM EEST (10/15)
Length of Visible Light 12h 07m
Length of Day
11h 15m
Waning Crescent, 0% of the Moon is Illuminated
Oct 15
Waning Crescent
Oct 15
New
Oct 22
First Quarter
Oct 29
Full
Nov 7
Last Quarter

Hourly Weather History & Observations

Time (EEST) Temp. Heat Index Dew Point Humidity Pressure Visibility Wind Dir Wind Speed Gust Speed Precip Events Conditions
12:20 AM 66.2 °F - 59.0 °F 78% 29.98 in - NE 6.9 mph - N/A   Clear
12:50 AM 68.0 °F - 57.2 °F 68% 29.98 in - North 4.6 mph - N/A   Clear
1:20 AM 68.0 °F - 57.2 °F 68% 29.98 in - NNW 3.5 mph - N/A   Clear
1:50 AM 68.0 °F - 55.4 °F 64% 29.98 in - North 2.3 mph - N/A   Clear
2:20 AM 66.2 °F - 55.4 °F 68% 29.98 in - North 2.3 mph - N/A   Clear
2:50 AM 66.2 °F - 55.4 °F 68% 29.98 in - NNW 2.3 mph - N/A   Clear
3:20 AM 64.4 °F - 55.4 °F 73% 29.98 in - North 2.3 mph - N/A   Clear
3:50 AM 64.4 °F - 55.4 °F 73% 29.98 in - Calm Calm - N/A   Clear
4:20 AM 62.6 °F - 55.4 °F 77% 29.98 in - Calm Calm - N/A   Clear
4:50 AM 62.6 °F - 55.4 °F 77% 30.01 in - Calm Calm - N/A   Clear
5:20 AM 60.8 °F - 57.2 °F 88% 30.01 in - Calm Calm - N/A   Clear
5:50 AM 60.8 °F - 55.4 °F 82% 30.01 in - Calm Calm - N/A   Clear
6:20 AM 60.8 °F - 55.4 °F 82% 30.01 in - North 2.3 mph - N/A   Clear
6:50 AM 60.8 °F - 55.4 °F 82% 30.01 in - NW 1.2 mph - N/A   Clear
7:20 AM 62.6 °F - 57.2 °F 82% 30.01 in - Variable 1.2 mph - N/A   Clear
7:50 AM 66.2 °F - 60.8 °F 83% 30.04 in - NNE 1.2 mph - N/A   Clear
8:20 AM 69.8 °F - 59.0 °F 68% 30.04 in - Calm Calm - N/A   Clear
8:50 AM 73.4 °F - 55.4 °F 53% 30.04 in - NNE 4.6 mph - N/A   Clear
9:20 AM 77.0 °F - 53.6 °F 44% 30.04 in - NE 6.9 mph - N/A   Clear
9:50 AM 78.8 °F - 50.0 °F 36% 30.04 in - NNE 6.9 mph - N/A   Clear
10:20 AM 80.6 °F - 50.0 °F 34% 30.04 in - NNE 4.6 mph - N/A   Clear
10:50 AM 80.6 °F - 50.0 °F 34% 30.04 in - North 4.6 mph - N/A   Clear
11:20 AM 82.4 °F - 50.0 °F 32% 30.04 in - Variable 4.6 mph - N/A   Clear
12:20 PM 86.0 °F - 51.8 °F 31% 30.01 in - Variable 2.3 mph - N/A   Clear
12:50 PM 86.0 °F - 50.0 °F 29% 30.01 in - Variable 3.5 mph - N/A   Clear
1:20 PM 87.8 °F - 50.0 °F 27% 30.01 in - NNE 3.5 mph - N/A   Clear
1:50 PM 87.8 °F - 50.0 °F 27% 29.98 in - Variable 3.5 mph - N/A   Clear
2:20 PM 89.6 °F - 50.0 °F 26% 29.98 in - Variable 2.3 mph - N/A   Clear
2:50 PM 89.6 °F - 48.2 °F 24% 29.98 in - Variable 3.5 mph - N/A   Clear
3:20 PM 89.6 °F - 48.2 °F 24% 29.98 in - Variable 2.3 mph - N/A   Clear
3:50 PM 89.6 °F - 46.4 °F 22% 29.98 in - SE 3.5 mph - N/A   Clear
4:20 PM 89.6 °F - 46.4 °F 22% 29.98 in - Variable 2.3 mph - N/A   Clear
4:50 PM 89.6 °F - 46.4 °F 22% 29.98 in - Variable 2.3 mph - N/A   Clear
5:20 PM 87.8 °F - 48.2 °F 25% 29.98 in - WSW 3.5 mph - N/A   Clear
5:50 PM 84.2 °F 83.0 °F 55.4 °F 37% 29.98 in - SW 2.3 mph - N/A   Clear
6:20 PM 80.6 °F 80.5 °F 55.4 °F 42% 29.98 in - Variable 2.3 mph - N/A   Clear
6:50 PM 77.0 °F - 60.8 °F 57% 29.98 in - WSW 5.8 mph - N/A   Clear
7:20 PM 77.0 °F - 62.6 °F 61% 30.01 in - West 4.6 mph - N/A   Clear
7:50 PM 75.2 °F - 64.4 °F 69% 30.01 in - WSW 4.6 mph - N/A   Clear
8:20 PM 73.4 °F - 62.6 °F 69% 30.01 in - Variable 1.2 mph - N/A   Clear
8:50 PM 73.4 °F - 64.4 °F 73% 30.01 in - Variable 2.3 mph - N/A   Clear
9:20 PM 71.6 °F - 62.6 °F 73% 30.01 in - Variable 2.3 mph - N/A   Clear
9:50 PM 71.6 °F - 62.6 °F 73% 30.01 in - North 2.3 mph - N/A   Clear
10:20 PM 69.8 °F - 62.6 °F 78% 30.01 in - Variable 2.3 mph - N/A   Clear
10:50 PM 68.0 °F - 60.8 °F 78% 30.04 in - Calm Calm - N/A   Clear
11:20 PM 68.0 °F - 60.8 °F 78% 30.04 in - North 2.3 mph - N/A   Clear
11:50 PM 71.6 °F - 57.2 °F 60% 30.04 in - NNE 3.5 mph - N/A   Clear